Regional Weather Roundup
Issued by NWS

Home | Current Version | Previous Version | Text Only | Print | Product List | Glossary Off
Versions: 1 2 3 4 5 6 7 8 9 10 11 12 13 14 15 16 17 18 19 20 21 22 23 24 25 26 27 28 29 30 31 32 33 34 35 36 37 38 39 40 41 42 43 44 45 46 47 48 49 50

152
ASUS45 KBOU 272207
RWRCO

WEATHER ROUNDUP FOR COLORADO
NATIONAL WEATHER SERVICE DENVER/BOULDER CO
400 PM MDT MON MAR 27 2017

NOTE: "FAIR" INDICATES FEW OR NO CLOUDS BELOW 12000 FEET WITH NO
SIGNIFICANT WEATHER AND/OR OBSTRUCTIONS TO VISIBILITY.

COZ001>005-013-030-031-272300-
...NORTHWEST COLORADO...

CITY           SKY/WX    TMP DP  RH WIND       PRES   REMARKS
CRAIG          LGT RAIN  49  32  52 S9        29.83R
HAYDEN         PTSUNNY   48  27  43 W10G16    29.83R
MEEKER         LGT RAIN  49  30  48 W17G25    29.83R
MOUNT WERNER   NOT AVBL
STEAMBOAT SPGS CLOUDY    50  27  40 NE8       29.81S
WALDEN         NOT AVBL
$$

COZ006>008-011-272300-
...WEST CENTRAL VALLEYS...

CITY           SKY/WX    TMP DP  RH WIND       PRES   REMARKS
GRAND JUNCTION CLOUDY    60  28  29 NW9       29.76F
MONTROSE       CLOUDY    57  27  31 W17G25    29.81F
EAGLE          PTSUNNY   52  25  35 SW16G29   29.83S
RIFLE          CLOUDY    58  28  32 S13       29.79F
DELTA          CLOUDY    61  23  23 SE6       29.79F
NUCLA          CLOUDY    57  27  30 SW12G18   29.85F
$$

COZ017>023-064>068-272300-
...SOUTHWEST COLORADO...

CITY           SKY/WX    TMP DP  RH WIND       PRES   REMARKS
DURANGO        CLOUDY    54  21  27 S10       29.86F
CORTEZ         CLOUDY    59  28  30 SW17G25   29.84F
PAGOSA SPRINGS CLOUDY    50  25  38 W12G17    29.92S
TELLURIDE      NOT AVBL
WOLF CREEK PAS LGT SNOW  27  23  86 SW18G24   30.05F WCI  13
$$

COZ009-010-012-014-032>034-037-058>063-272300-
...CENTRAL COLORADO...

CITY           SKY/WX    TMP DP  RH WIND       PRES   REMARKS
ASPEN          PTSUNNY   50  21  32 N10       29.82F
BUENA VISTA    CLOUDY    55  22  27 SE18G25   29.84F
COPPER MTN     CLOUDY    34  19  55 SW13      29.98R WCI  25
BERTHOUD PASS  SNOW      23  12  63 E21G26    29.97F VSB<1/4 WCI   8
COTTONWOOD PAS CLOUDY    46  21  36 SE6       29.91F
GUNNISON       FAIR      53  20  27 VRB6      29.85F
KREMMLING      CLOUDY    54  25  32 CALM      29.85R
LEADVILLE      CLOUDY    42  13  30 S14       29.87F
MONARCH PASS   FLURRIES  30  27  86 S9        30.10S WCI  22
SALIDA         FAIR      58  24  27 S14G22    29.91F
SUNLIGHT       CLOUDY    36  21  55 SW6       29.97S
WILKERSON PASS CLOUDY    34  25  69 SW5       29.99F WCI  30
$$

COZ069>075-272300-
...SAN LUIS VALLEY/SANGRE DE CRISTO MOUNTAINS...

CITY           SKY/WX    TMP DP  RH WIND       PRES   REMARKS
ALAMOSA        CLOUDY    56  25  30 SW20G30   29.84F
LA VETA PASS   NOT AVBL
SAGUACHE       FAIR      55  23  28 S10G20    29.86F
$$

COZ035-036-038>040-272300-
...NORTHERN COLORADO FRONT RANGE...

CITY           SKY/WX    TMP DP  RH WIND       PRES   REMARKS
DENVER INTL AP PTSUNNY   63  29  27 SE16G25   29.79F
DMNS CITY PARK   N/A     60  28  29 SE14G20   29.77F
AURORA         PTSUNNY   60  29  31 SE16      29.79F
FRONT RANGE AP PTSUNNY   63  30  29 SE20G31   29.82F
ERIE MUNI ARPT PTSUNNY   62  24  23 N7        29.78F
BOULDER MUN AP PTSUNNY   59  30  33 CALM      29.79F
CENTENNIAL     PTSUNNY   58  30  34 SE15      29.80F
BROOMFIELD     PTSUNNY   59  28  31 CALM      29.80F
FORT COLLINS   FAIR      61  30  31 VRB5      29.80F
LONGMONT       PTSUNNY   63  31  29 NW3       29.81F
$$

COZ041-046-047-076>085-087-088-272300-
...PIKES PEAK/PALMER DIVIDE AND SOUTHERN FOOTHILLS...

CITY           SKY/WX    TMP DP  RH WIND       PRES   REMARKS
COLO. SPRINGS  PTSUNNY   56  28  34 SE15G21   29.85F
A. F. ACADEMY  NOT AVBL
SCHRIEVER AFB  PTSUNNY   56  30  36 SE18G36   29.85F
ELLICOTT       NOT AVBL
FALCON         FAIR      55  28  34 S17G25    29.88F
FORT CARSON    FAIR      59  28  31 S16       29.83F
LIMON          FAIR      58  33  39 S18G29    29.85F
MONUMENT HILL  FAIR      52  32  46 MISG      29.87F
TRINIDAD       FAIR      65  31  28 S13G21    29.79F
$$

COZ042>045-048>051-090-091-272300-
...NORTHEAST COLORADO...

CITY           SKY/WX    TMP DP  RH WIND       PRES   REMARKS
GREELEY ARPT   PTSUNNY   64  28  25 SE10G17   29.79F
AKRON          PTSUNNY   62  30  29 S21       29.83F
BURLINGTON     FAIR      62  40  44 SE14      29.86F
WRAY           FAIR      68  32  26 S7        29.84F
STERLING       FAIR      64  32  29 S15       29.80F
HOLYOKE        FAIR      64  32  29 S10       29.84F
FORT MORGAN    PTSUNNY   64  27  25 S14       29.81F
$$

COZ086-089-092>099-272300-
...SOUTHEAST COLORADO...

CITY           SKY/WX    TMP DP  RH WIND       PRES   REMARKS
PUEBLO         FAIR      66  33  29 SE12G23   29.78F
LA JUNTA       FAIR      70  33  25 SE10G21   29.77F
LAMAR          FAIR      69  32  25 S16G28    29.80F
SPRINGFIELD      N/A     68  32  26 S21G35    29.84F
$$




USA.gov is the U.S. government's official web portal to all federal, state and local government web resources and services.